Temp
86 89 83 83 83 83 84 84 83 83 83 83 83 83 83 83 83 83 83 84 83 83 83 84 84 83 84 84 84 83 83 83 83 83 83 82 82 82 83 83 82 88 82
90 90 82 83 83 83 83 83 83 83 83 83 83 83 83 83 84 84 83 84 84 84 83 84 84 83 83 83 84 84 83 83 83 83 83 83 83 82 82 82 84 86 82
90 90 88 82 83 83 83 83 83 83 83 83 83 83 83 83 84 84 84 84 83 83 82 84 84 83 84 83 83 83 83 83 83 83 84 88 88 83 83 82 83 82 81
90 91 90 82 83 83 83 83 83 83 83 83 83 83 83 83 84 84 84 84 83 83 82 80 83 84 84 83 84 83 83 83 83 83 87 89 90 83 82 83 82 81 81
88 91 89 83 83 83 83 82 83 83 83 83 83 83 83 84 84 84 84 83 82 83 84 81 81 83 83 83 83 83 82 83 82 84 86 87 88 85 82 82 82 81 82
88 91 85 83 83 83 83 82 83 83 83 83 83 83 84 83 84 83 84 83 83 83 83 84 82 83 83 83 82 82 83 83 82 86 86 85 87 82 82 82 82 82 81
87 89 88 83 83 83 83 83 83 83 83 83 83 83 83 83 83 83 83 83 82 83 82 84 84 82 81 83 82 82 82 83 87 86 86 87 86 81 82 82 82 81 81
88 89 88 83 83 83 83 83 83 83 83 83 83 83 83 83 83 83 83 83 83 83 83 82 84 83 83 83 82 82 82 83 86 86 86 87 81 81 82 82 81 81 81
88 87 88 88 85 83 83 83 83 83 84 83 83 83 83 83 83 83 83 83 83 83 83 83 83 83 83 83 83 82 82 82 85 88 87 87 79 81 82 82 81 81 81
86 87 86 86 87 86 87 83 83 83 84 83 83 83 83 83 83 83 82 82 82 83 83 83 83 83 82 82 82 82 83 83 88 88 88 88 79 81 82 81 81 81 81
83 85 85 85 85 85 85 86 83 83 84 84 84 84 84 88 87 86 84 82 83 83 83 83 83 83 82 82 83 83 83 89 90 90 90 81 79 81 82 82 81 81 81
82 83 82 84 84 85 86 85 86 87 88 88 87 86 88 86 85 86 85 82 83 83 83 83 82 82 83 88 85 84 88 88 89 89 89 79 79 81 82 81 81 81 81
83 83 79 83 83 83 85 85 86 86 86 84 84 85 85 85 83 84 81 81 84 83 89 87 87 88 86 87 88 86 86 87 89 89 88 79 80 81 82 81 81 81 81
82 83 82 84 83 82 84 82 80 83 81 79 79 80 78 82 80 81 81 82 82 81 84 86 88 86 86 85 86 85 85 87 88 89 87 79 79 81 82 82 81 81 81
81 82 83 83 82 81 80 79 74 74 76 79 78 81 75 75 75 74 73 78 80 86 85 81 82 84 84 84 83 84 84 85 86 87 87 81 80 80 81 82 81 80 81
83 83 83 82 82 81 78 78 75 72 72 73 78 77 77 76 73 82 80 79 84 85 85 84 81 80 81 82 83 83 83 84 85 84 88 88 80 80 81 81 82 81 81
84 84 80 76 78 78 75 79 77 73 73 72 72 77 83 76 78 80 82 83 85 84 82 82 81 82 81 81 81 82 83 82 83 82 85 86 87 80 80 81 81 80 80
84 81 75 71 72 76 77 79 76 77 72 71 71 76 80 80 80 78 82 83 82 82 82 76 81 81 81 82 80 82 82 82 82 82 83 84 86 88 84 80 81 80 81
84 80 75 72 71 73 77 78 79 75 75 75 73 73 79 79 80 79 81 82 81 78 77 79 79 77 75 80 80 81 80 81 82 84 83 83 84 85 88 84 79 79 81
82 76 77 74 73 75 77 77 77 72 74 74 74 75 79 80 80 80 78 80 80 79 82 81 79 79 80 81 80 80 79 81 82 82 83 85 85 85 86 85 87 87 80
76 75 74 77 78 77 75 75 73 74 70 72 72 73 77 80 79 80 82 80 81 79 81 80 80 77 76 76 75 79 80 81 81 83 84 85 85 85 86 86 81 82 88
68 70 76 78 77 78 78 77 76 70 72 72 71 75 79 81 80 81 80 80 80 81 79 79 77 73 72 77 76 76 75 79 81 82 83 81 83 85 85 85 86 83 83
66 69 71 76 76 77 78 77 76 74 75 73 72 75 80 81 80 79 80 80 79 79 80 78 77 72 71 71 75 73 72 73 77 73 74 75 78 81 82 82 83 84 84
70 69 71 73 76 78 79 78 77 77 73 75 75 78 79 79 79 79 78 79 79 80 77 78 77 74 71 70 70 72 76 77 72 71 75 71 72 72 76 82 82 83 83
73 73 75 75 76 77 78 79 79 76 75 75 78 77 76 77 78 78 78 78 78 80 78 76 75 74 71 70 70 71 69 73 75 72 70 72 71 70 70 72 79 79 77
73 75 78 76 76 77 77 78 77 75 74 75 75 78 77 78 78 77 78 75 74 75 76 78 76 75 73 71 71 72 72 70 73 73 70 67 68 69 71 72 73 73 73
MSLP
1013.36 1013.53 1014.10 1014.31 1014.53 1014.74 1014.91 1015.09 1015.18 1015.29 1015.51 1015.65 1015.97 1016.28 1016.46 1016.82 1016.97 1017.16 1017.34 1017.42 1017.69 1017.85 1017.92 1018.08 1018.17 1018.27 1018.27 1018.22 1018.35 1018.56 1018.69 1018.77 1018.94 1019.05 1019.15 1019.32 1019.50 1019.57 1019.59 1019.77 1019.89 1019.60 1020.17
1012.97 1013.50 1014.17 1014.33 1014.57 1014.83 1015.10 1015.32 1015.39 1015.53 1015.74 1015.85 1016.10 1016.36 1016.67 1016.90 1017.13 1017.27 1017.51 1017.66 1017.71 1017.85 1017.99 1018.17 1018.29 1018.39 1018.49 1018.49 1018.55 1018.71 1018.92 1018.98 1019.07 1019.17 1019.33 1019.47 1019.67 1019.85 1019.87 1019.99 1019.95 1020.08 1020.33
1013.07 1013.54 1014.13 1014.49 1014.68 1014.94 1015.30 1015.55 1015.74 1015.82 1016.02 1016.09 1016.32 1016.65 1016.90 1017.08 1017.21 1017.44 1017.61 1017.74 1017.98 1018.09 1018.19 1018.30 1018.35 1018.48 1018.63 1018.73 1018.79 1018.95 1019.09 1019.16 1019.27 1019.36 1019.48 1019.45 1019.57 1019.99 1020.14 1020.31 1020.30 1020.45 1020.60
1013.15 1013.56 1014.06 1014.73 1014.93 1015.14 1015.43 1015.69 1015.95 1016.12 1016.32 1016.48 1016.61 1016.85 1017.10 1017.28 1017.37 1017.62 1017.70 1017.81 1017.94 1018.23 1018.34 1018.19 1018.33 1018.53 1018.72 1018.88 1018.92 1019.15 1019.25 1019.41 1019.51 1019.74 1019.53 1019.50 1019.55 1020.19 1020.34 1020.49 1020.69 1020.74 1020.87
1013.52 1013.75 1014.19 1014.84 1015.14 1015.42 1015.68 1015.89 1016.15 1016.36 1016.56 1016.76 1016.95 1017.13 1017.33 1017.47 1017.62 1017.77 1017.84 1017.91 1018.01 1018.29 1018.25 1018.55 1018.51 1018.57 1018.81 1018.92 1019.07 1019.32 1019.49 1019.60 1019.86 1019.91 1019.81 1019.79 1019.84 1020.42 1020.62 1020.69 1020.96 1021.12 1021.04
1013.63 1013.82 1014.57 1015.00 1015.27 1015.57 1015.78 1016.08 1016.37 1016.58 1016.79 1017.03 1017.16 1017.33 1017.48 1017.53 1017.63 1017.81 1017.91 1018.06 1018.13 1018.14 1018.21 1018.33 1018.63 1018.73 1018.78 1019.05 1019.32 1019.39 1019.55 1019.65 1020.01 1020.02 1020.07 1020.27 1020.23 1020.73 1020.83 1020.91 1021.00 1021.18 1021.38
1013.90 1014.10 1014.59 1015.12 1015.50 1015.76 1016.00 1016.18 1016.42 1016.71 1016.86 1017.13 1017.27 1017.40 1017.56 1017.65 1017.76 1017.84 1018.09 1018.16 1018.19 1018.22 1018.28 1018.43 1018.57 1018.79 1018.89 1019.09 1019.36 1019.54 1019.72 1019.81 1019.81 1020.10 1020.23 1020.21 1020.46 1020.89 1021.04 1021.04 1021.17 1021.28 1021.49
1013.93 1014.29 1014.82 1015.40 1015.67 1016.03 1016.19 1016.28 1016.53 1016.83 1016.98 1017.11 1017.25 1017.43 1017.61 1017.73 1017.78 1017.97 1018.17 1018.25 1018.35 1018.27 1018.34 1018.46 1018.58 1018.72 1018.88 1019.15 1019.45 1019.68 1019.84 1020.01 1020.04 1020.03 1020.16 1020.33 1020.76 1021.02 1021.16 1021.26 1021.41 1021.53 1021.60
1013.97 1014.45 1014.91 1015.36 1015.85 1016.19 1016.35 1016.57 1016.73 1016.95 1017.09 1017.17 1017.32 1017.47 1017.63 1017.70 1017.78 1017.93 1018.12 1018.29 1018.32 1018.34 1018.35 1018.43 1018.56 1018.77 1018.89 1019.17 1019.43 1019.69 1019.93 1020.01 1020.03 1019.87 1020.02 1020.19 1020.83 1021.08 1021.18 1021.37 1021.51 1021.62 1021.76
1014.36 1014.60 1014.98 1015.42 1015.75 1016.07 1016.37 1016.74 1016.96 1017.16 1017.26 1017.33 1017.46 1017.60 1017.74 1017.82 1017.81 1017.85 1018.05 1018.21 1018.37 1018.41 1018.44 1018.39 1018.49 1018.60 1018.83 1019.11 1019.41 1019.56 1019.73 1019.84 1019.67 1019.82 1019.91 1020.00 1020.61 1020.89 1021.00 1021.39 1021.50 1021.64 1021.84
1014.75 1015.11 1015.42 1015.67 1016.01 1016.23 1016.39 1016.62 1017.00 1017.17 1017.25 1017.33 1017.43 1017.60 1017.75 1017.66 1017.69 1017.77 1017.85 1018.10 1018.29 1018.42 1018.52 1018.55 1018.57 1018.67 1018.85 1019.09 1019.28 1019.57 1019.71 1019.33 1019.39 1019.47 1019.54 1020.01 1020.50 1020.69 1020.81 1021.08 1021.36 1021.48 1021.70
1014.68 1015.17 1015.75 1015.70 1015.97 1016.27 1016.38 1016.61 1016.68 1016.78 1016.77 1017.01 1017.22 1017.31 1017.37 1017.61 1017.82 1017.87 1017.92 1018.02 1018.07 1018.29 1018.41 1018.50 1018.58 1018.71 1018.81 1018.63 1019.08 1019.34 1019.21 1019.31 1019.31 1019.34 1019.53 1020.11 1020.31 1020.42 1020.58 1020.84 1021.09 1021.26 1021.43
1014.58 1015.14 1015.54 1015.71 1015.99 1016.21 1016.32 1016.58 1016.77 1016.99 1017.05 1017.18 1017.32 1017.39 1017.49 1017.59 1017.72 1017.81 1018.01 1018.01 1017.82 1018.04 1017.84 1018.12 1018.21 1018.14 1018.40 1018.48 1018.52 1018.90 1019.09 1019.17 1019.08 1019.23 1019.29 1019.91 1020.09 1020.24 1020.34 1020.52 1020.75 1020.95 1021.14
1014.51 1014.95 1015.49 1015.59 1015.90 1016.32 1016.50 1016.81 1017.18 1017.29 1017.37 1017.39 1017.33 1017.51 1017.71 1017.53 1017.43 1017.51 1017.77 1017.65 1017.87 1017.76 1017.83 1017.87 1017.79 1017.94 1018.18 1018.48 1018.49 1018.75 1018.99 1018.96 1018.88 1018.93 1019.13 1019.67 1019.85 1020.00 1020.00 1020.11 1020.47 1020.70 1020.87
1014.44 1014.94 1015.37 1015.57 1015.85 1016.17 1016.26 1016.40 1016.88 1017.31 1017.47 1017.35 1017.16 1017.24 1017.54 1017.61 1017.63 1017.46 1017.95 1017.79 1017.69 1017.35 1017.52 1018.01 1017.98 1018.04 1018.07 1018.21 1018.50 1018.55 1018.69 1018.78 1018.90 1018.89 1018.93 1019.30 1019.49 1019.60 1019.66 1019.86 1020.23 1020.30 1020.43
1014.15 1014.57 1015.12 1015.67 1015.70 1015.53 1015.69 1016.11 1016.78 1017.27 1017.70 1017.63 1017.39 1017.35 1017.33 1017.45 1017.53 1017.07 1017.51 1017.69 1017.33 1017.33 1017.39 1017.54 1017.90 1017.97 1018.03 1018.03 1018.09 1018.28 1018.42 1018.49 1018.60 1018.70 1018.58 1018.62 1019.10 1019.15 1019.12 1019.33 1019.64 1019.89 1020.08
1013.83 1014.84 1015.85 1016.04 1015.76 1015.99 1016.01 1016.17 1016.48 1016.80 1017.34 1016.90 1017.39 1017.21 1016.91 1017.24 1017.10 1017.23 1017.15 1017.00 1016.94 1017.13 1017.39 1017.46 1017.66 1017.81 1017.87 1017.93 1018.01 1018.09 1018.22 1018.35 1018.41 1018.55 1018.50 1018.48 1018.41 1018.77 1018.88 1018.95 1018.93 1019.11 1019.41
1014.04 1015.10 1016.25 1015.45 1015.64 1016.21 1015.94 1016.00 1016.15 1016.35 1016.71 1016.97 1017.17 1016.85 1016.84 1016.97 1016.89 1016.77 1016.91 1016.82 1016.96 1017.14 1017.24 1017.55 1017.44 1017.59 1017.73 1017.80 1017.81 1017.85 1017.90 1018.02 1018.14 1018.25 1018.23 1018.23 1018.09 1018.03 1018.13 1018.41 1018.57 1018.72 1018.95
1014.03 1014.91 1015.81 1015.74 1015.87 1015.77 1015.72 1015.74 1015.95 1016.24 1016.43 1016.37 1016.63 1016.67 1016.59 1016.73 1016.83 1017.00 1016.85 1016.81 1016.95 1017.20 1017.45 1017.43 1017.39 1017.62 1017.75 1017.55 1017.62 1017.62 1017.62 1017.64 1017.67 1017.61 1017.73 1017.88 1017.88 1017.89 1017.78 1017.85 1018.07 1018.16 1018.35
1014.21 1014.51 1015.01 1015.85 1016.10 1015.94 1015.57 1015.81 1016.15 1016.30 1016.19 1016.26 1016.27 1016.41 1016.41 1016.38 1016.41 1016.51 1016.84 1016.78 1016.71 1016.79 1016.86 1017.00 1017.14 1017.25 1017.25 1017.21 1017.37 1017.23 1017.34 1017.27 1017.24 1017.31 1017.30 1017.30 1017.31 1017.41 1017.42 1017.46 1017.44 1017.44 1017.89
1015.75 1014.24 1014.42 1014.62 1015.23 1015.24 1015.73 1015.71 1015.97 1016.20 1016.34 1016.22 1016.14 1016.35 1016.41 1016.41 1016.51 1016.35 1016.32 1016.43 1016.38 1016.45 1016.51 1016.78 1016.92 1017.04 1017.17 1017.44 1017.33 1016.80 1016.71 1016.78 1016.80 1016.75 1016.72 1016.67 1016.62 1016.83 1016.79 1016.83 1017.20 1017.31 1017.09
1015.21 1015.89 1015.22 1014.73 1014.87 1014.99 1015.29 1015.50 1015.81 1016.09 1016.39 1016.41 1016.47 1016.44 1016.35 1016.27 1016.38 1016.25 1016.19 1016.21 1016.35 1016.31 1016.39 1016.59 1016.81 1017.06 1017.14 1017.11 1016.64 1016.53 1015.87 1015.88 1016.07 1016.21 1016.41 1016.63 1016.49 1016.36 1016.45 1016.56 1016.64 1016.85 1016.98
1013.20 1014.71 1015.09 1015.53 1015.07 1015.10 1015.33 1015.44 1015.67 1016.25 1016.46 1016.71 1016.65 1016.67 1016.29 1016.18 1016.20 1016.24 1016.15 1016.13 1016.30 1016.35 1016.11 1016.24 1016.41 1016.76 1016.75 1017.01 1016.79 1016.47 1016.00 1015.39 1015.81 1016.51 1016.59 1016.72 1016.51 1016.44 1016.32 1016.49 1016.61 1016.69 1016.76
1012.65 1013.05 1015.27 1015.59 1015.72 1015.49 1015.43 1015.21 1015.41 1015.80 1016.06 1016.48 1016.59 1016.62 1016.56 1016.50 1016.36 1016.27 1016.17 1016.08 1016.05 1016.14 1016.15 1016.04 1016.17 1016.37 1016.56 1016.54 1016.84 1016.74 1016.51 1016.28 1016.01 1016.05 1016.68 1017.07 1016.98 1016.90 1016.65 1016.29 1016.33 1016.52 1016.73
1012.05 1013.54 1014.42 1015.04 1015.61 1015.75 1015.75 1015.87 1015.44 1015.77 1016.10 1016.47 1016.58 1016.63 1016.81 1016.74 1016.61 1016.37 1016.23 1016.01 1016.01 1015.87 1015.91 1015.92 1015.91 1016.06 1016.25 1016.35 1016.44 1016.37 1016.55 1016.40 1016.26 1016.21 1016.45 1017.07 1017.31 1017.46 1017.19 1017.14 1016.61 1016.75 1017.21
1013.11 1013.74 1014.13 1014.69 1015.27 1015.78 1016.04 1016.13 1015.98 1016.03 1016.13 1016.26 1016.51 1016.59 1016.75 1016.81 1016.76 1016.53 1016.30 1016.18 1016.04 1015.97 1015.81 1015.74 1015.80 1015.79 1015.89 1016.18 1016.26 1016.15 1016.06 1016.07 1015.88 1016.10 1016.37 1017.02 1017.21 1017.75 1017.64 1017.57 1017.48 1017.45 1017.58
Wind_Speed
14 14 14 14 14 14 13 12 12 13 12 12 15 14 14 14 14 12 11 12 13 9 10 9 9 10 10 12 12 12 12 12 11 11 12 11 11 12 14 14 10 13 14
17 15 14 14 15 15 14 13 12 12 12 12 15 15 14 14 13 11 11 10 11 10 10 9 9 9 9 10 11 11 11 12 13 11 12 13 12 11 12 12 8 12 12
17 15 15 13 14 15 14 14 13 12 13 13 13 14 14 13 12 11 10 10 9 8 7 9 9 9 9 11 10 11 11 9 10 11 11 8 8 10 12 11 11 12 13
15 14 14 13 13 14 14 14 13 13 13 12 13 13 12 12 11 10 9 7 7 8 13 1 9 9 9 9 8 9 9 10 11 11 7 7 9 10 10 11 11 12 11
13 12 13 14 14 15 14 13 12 12 12 12 12 12 12 12 11 10 8 7 6 9 11 14 6 10 8 10 11 9 10 10 10 7 6 5 5 9 9 10 10 9 8
13 13 15 15 15 15 15 14 13 12 12 11 12 11 11 10 10 9 8 6 6 7 10 11 9 7 8 9 10 10 9 10 9 6 5 6 4 10 8 11 10 10 8
12 12 14 14 13 13 13 14 13 13 13 12 12 12 11 10 9 8 7 6 5 4 6 9 11 13 9 11 10 10 8 10 7 6 5 6 5 8 7 8 9 11 9
12 12 11 12 13 13 13 13 13 13 12 12 12 11 10 9 8 7 6 6 5 3 3 5 7 10 12 11 11 9 9 9 7 6 5 4 5 6 8 7 8 8 8
12 11 10 11 11 12 12 12 12 12 12 11 11 10 9 9 8 6 5 5 5 4 4 5 7 8 12 12 11 10 9 9 6 4 5 5 8 8 9 8 7 8 8
10 10 10 9 10 9 9 11 10 10 11 10 10 9 9 8 7 7 4 5 4 3 2 3 5 8 10 12 12 12 11 10 7 6 4 5 10 11 10 10 10 8 7
8 9 8 8 8 8 7 8 9 11 10 10 9 10 8 5 6 7 4 4 5 5 4 3 3 7 9 11 12 11 11 5 6 5 3 9 12 12 11 10 12 10 9
12 11 8 8 8 8 6 7 8 8 8 7 7 8 6 5 5 5 5 8 7 5 4 4 4 4 7 7 6 9 6 6 5 4 3 8 13 14 13 10 12 12 12
12 10 10 10 8 9 7 5 4 4 4 5 7 6 6 5 4 4 3 3 5 7 4 6 6 5 6 5 5 6 6 7 5 4 3 9 12 14 13 12 12 13 14
13 12 10 10 9 8 5 4 3 4 4 4 5 5 4 4 5 4 3 3 4 3 5 5 4 4 5 5 6 6 7 6 5 4 5 9 11 14 16 14 14 13 14
12 11 10 10 9 7 7 5 4 2 4 6 5 6 3 3 3 3 2 3 2 4 4 4 5 5 5 6 6 6 7 7 7 5 4 9 10 11 15 16 14 15 17
12 12 11 8 8 10 6 4 4 3 5 7 5 4 5 3 3 4 4 4 4 4 5 4 4 4 5 5 6 6 7 7 7 7 6 6 11 11 12 17 16 18 18
11 8 6 7 7 11 3 5 5 6 6 7 4 7 9 4 5 5 5 5 4 4 5 5 5 5 5 5 7 6 6 7 7 7 6 6 7 11 12 16 18 19 18
9 10 16 13 8 8 7 7 4 5 3 5 3 4 7 7 7 6 6 5 3 4 3 2 4 5 6 6 6 6 6 7 8 8 7 7 7 7 9 13 17 18 17
10 13 14 16 12 10 9 7 4 3 3 4 3 2 6 6 7 7 5 5 5 4 5 5 5 5 5 6 6 6 6 6 8 8 10 10 9 9 7 8 12 17 17
7 10 14 12 14 12 6 1 3 4 3 1 2 1 2 3 5 6 4 6 5 5 5 5 6 5 6 5 5 5 6 6 6 7 9 9 11 11 10 10 8 9 14
15 4 9 11 9 6 4 4 2 3 1 1 3 3 2 2 2 4 3 4 4 4 4 5 4 5 5 4 4 6 7 8 8 7 7 7 9 9 9 8 6 6 6
8 15 5 7 7 6 5 3 2 3 1 2 2 2 4 5 5 4 2 1 3 4 4 5 5 3 3 4 4 4 5 5 6 7 6 6 8 6 8 9 9 7 6
14 5 5 5 7 7 7 6 7 2 3 1 1 1 4 5 5 4 2 1 2 4 4 5 5 7 5 4 7 4 3 5 2 1 2 3 4 5 5 7 8 8 7
10 10 1 3 5 6 7 7 7 4 4 2 3 3 4 5 5 4 4 3 3 3 4 4 5 6 6 5 3 6 6 3 2 3 3 3 4 3 3 4 5 5 4
7 9 5 4 5 4 3 3 6 6 5 4 4 4 4 4 5 5 4 3 2 2 3 5 5 5 4 4 4 3 6 6 4 2 3 3 2 3 3 3 3 3 5
7 7 7 8 6 3 2 2 5 7 6 5 4 3 3 3 4 6 6 5 4 2 3 3 4 4 3 5 4 6 5 4 7 4 2 2 3 4 5 5 5 5 5
Wind_Direction
156 153 150 146 138 130 126 121 114 111 116 129 149 144 143 141 145 145 141 143 149 147 132 124 129 128 123 120 123 124 125 124 121 127 126 127 125 127 123 122 144 120 116
151 153 153 144 141 138 134 130 121 116 114 118 141 140 142 138 140 142 147 149 156 152 134 130 130 132 137 130 125 127 129 138 136 136 127 125 134 128 126 129 131 110 120
152 152 156 146 146 142 138 134 131 124 123 121 126 136 139 139 143 148 152 155 160 144 117 137 136 139 135 138 139 139 143 140 129 135 134 128 129 133 133 133 124 129 117
152 156 156 151 148 145 142 139 137 134 132 131 132 137 141 145 150 155 157 162 164 139 135 177 148 146 144 143 133 136 145 141 136 134 155 138 135 141 137 128 120 125 125
159 160 153 155 148 149 145 143 142 139 139 139 139 143 148 152 153 162 154 155 158 162 160 165 189 151 154 152 139 146 147 140 130 156 154 136 137 135 142 137 142 138 151
160 162 152 155 154 154 151 148 148 148 144 146 147 151 152 154 153 157 148 152 152 152 159 166 168 130 161 144 153 154 162 146 142 131 154 142 164 134 168 157 149 133 149
159 162 160 156 154 154 155 155 155 157 153 152 150 154 159 160 152 150 152 153 152 145 150 163 174 162 183 160 159 162 160 153 159 145 150 147 155 154 178 149 146 149 155
158 162 160 159 155 156 163 162 160 164 161 161 159 159 161 162 161 162 165 167 155 145 149 149 169 169 172 167 164 167 171 163 176 162 166 172 141 177 176 178 182 162 165
158 163 167 170 167 165 169 171 168 170 173 171 166 165 169 167 167 173 187 190 177 151 139 140 162 167 166 167 164 163 171 178 189 198 218 194 169 198 194 195 167 167 180
166 168 169 172 178 178 176 176 176 179 181 178 169 175 168 179 179 183 176 201 191 179 154 147 145 164 165 167 172 173 178 179 194 207 202 199 173 201 209 189 190 183 205
168 173 173 178 183 183 184 180 186 190 189 185 184 183 179 192 186 177 169 206 210 198 192 172 138 161 168 175 179 185 191 197 204 211 231 154 190 200 212 196 192 186 199
175 175 181 190 192 192 192 192 194 193 198 199 196 192 186 190 196 217 203 208 216 211 208 201 172 162 181 176 183 188 205 215 222 213 234 193 200 204 210 217 191 199 201
180 182 188 189 193 197 202 197 197 211 216 209 208 202 191 196 212 215 218 224 218 211 211 196 188 199 182 198 190 195 204 214 220 230 217 201 206 212 220 210 205 207 206
195 193 185 192 192 199 203 188 196 233 232 226 212 203 198 208 215 223 249 248 221 212 224 215 207 207 204 203 200 204 212 229 226 226 212 222 220 219 224 220 212 213 219
203 197 196 191 196 203 208 186 148 290 281 259 230 212 207 228 207 158 228 244 254 241 238 233 221 214 214 209 206 214 219 225 235 246 244 214 240 229 227 219 217 221 222
207 199 193 195 208 214 209 159 132 136 304 295 255 218 246 228 255 226 214 227 237 224 225 243 254 238 231 224 225 228 229 228 233 235 241 240 239 252 223 211 214 220 228
210 183 126 66 235 241 200 199 178 192 183 240 263 228 242 250 215 228 231 241 235 230 238 235 241 245 255 241 237 231 236 236 234 232 241 244 245 237 241 219 218 217 226
206 153 133 168 250 246 235 232 207 189 211 225 239 251 254 239 242 226 241 244 257 245 240 243 254 244 241 236 242 247 242 241 239 237 237 246 241 253 228 236 222 226 231
201 159 164 176 219 227 227 229 236 147 193 205 213 195 252 238 217 227 234 242 226 214 218 227 219 232 242 247 249 247 245 241 242 239 241 242 243 248 248 248 240 224 226
199 168 172 191 212 228 220 137 156 131 177 237 96 95 237 237 220 217 223 220 211 222 214 212 230 215 249 260 264 257 253 245 239 232 237 240 237 244 236 239 247 231 226
330 211 182 191 177 173 140 171 144 129 340 338 51 20 278 269 248 197 203 195 207 240 238 225 235 238 238 230 254 243 246 238 232 228 228 239 232 235 243 237 238 235 230
15 345 270 172 169 163 155 149 122 148 146 56 13 2 206 193 172 175 174 196 242 261 253 242 225 220 241 219 247 249 249 203 221 230 229 239 236 246 249 244 254 248 250
116 43 318 256 168 157 162 146 130 122 105 151 96 146 74 69 61 45 29 318 282 261 262 248 231 221 237 212 235 260 224 236 165 114 198 247 257 251 250 250 251 255 249
126 126 38 250 198 162 169 148 150 166 144 145 122 102 74 39 33 20 357 332 298 263 258 258 247 229 218 230 191 240 253 308 290 152 95 53 40 20 337 269 250 245 257
97 141 146 176 198 152 170 176 137 127 117 127 125 97 56 46 28 20 1 337 311 301 286 271 271 250 207 223 209 193 223 242 250 243 166 164 117 37 45 27 61 63 52
101 153 147 159 180 181 193 186 127 129 130 117 99 81 51 47 34 25 13 14 11 346 2 338 286 289 241 218 224 229 217 205 223 211 172 146 87 59 49 42 72 77 70